This demonstration page uses our WeatherBlox Daily Observations layout. Learn more.

Left ArrowRight Arrow

39.08367, -84.50855

Hourly Observations for June 1, 2017

Temp ( °F °C ) Dew Point ( °F °C ) Humidity (%) Winds ( mph kmh ) Pressure ( in mb ) Visibility ( mi km ) Precip ( " mm )
12:53 am 00:53 Clear 60 15.6 55 12.8 84 84 N N/A 30.04 1017 10 16 N/A
1:53 am 01:53 Clear 57 13.9 54 12.2 90 90 N N/A 30.05 1018 10 16 N/A
2:53 am 02:53 Clear 55 12.8 54 12.2 96 96 N N/A 30.06 1018 10 16 N/A
3:53 am 03:53 Clear 55 12.8 54 12.2 96 96 N N/A 30.07 1018 10 16 N/A
4:53 am 04:53 Clear 52 11.1 52 11.1 100 100 N N/A 30.07 1018 10 16 N/A
5:53 am 05:53 Clear 51 10.6 51 10.6 100 100 N N/A 30.08 1019 9 14 N/A
6:53 am 06:53 Sunny 52 11.1 52 11.1 100 100 N N/A 30.09 1019 10 16 N/A
7:53 am 07:53 Sunny 58 14.4 56 13.3 93 93 N N/A 30.11 1020 10 16 N/A
8:53 am 08:53 Sunny 63 17.2 59 15 87 87 N N/A 30.11 1020 10 16 N/A
9:53 am 09:53 Sunny 69 20.6 56 13.3 63 63 N N/A 30.11 1020 10 16 N/A
10:53 am 10:53 Sunny 73 22.8 49 9.4 43 43 WSW 3 6 30.11 1020 10 16 N/A
11:53 am 11:53 Sunny 75 23.9 48 8.9 39 39 NW 6 9 30.11 1020 10 16 N/A
12:53 pm 12:53 Sunny 77 25 48 8.9 36 36 NW 8 13 30.10 1019 10 16 N/A
1:53 pm 13:53 Sunny 76 24.4 49 9.4 39 39 S 7 11 30.09 1019 10 16 N/A
2:53 pm 14:53 Sunny 76 24.4 50 10 40 40 WSW 9 15 30.08 1019 10 16 N/A
3:53 pm 15:53 Sunny 78 25.6 49 9.4 36 36 N N/A 30.06 1018 10 16 N/A
4:53 pm 16:53 Sunny 80 26.7 47 8.3 31 31 N N/A 30.05 1018 10 16 N/A
5:53 pm 17:53 Sunny 80 26.7 48 8.9 33 33 N N/A 30.04 1017 10 16 N/A
6:53 pm 18:53 Sunny 77 25 49 9.4 37 37 W 7 11 30.02 1017 10 16 N/A
7:53 pm 19:53 Sunny 74 23.3 51 10.6 45 45 W 6 9 30.02 1017 10 16 N/A
8:53 pm 20:53 Sunny 68 20 56 13.3 65 65 N N/A 30.03 1017 10 16 N/A
9:53 pm 21:53 Clear 61 16.1 54 12.2 78 78 N N/A 30.04 1017 10 16 N/A
10:53 pm 22:53 Clear 60 15.6 53 11.7 78 78 N N/A 30.05 1018 10 16 N/A
11:53 pm 23:53 Clear 57 13.9 53 11.7 87 87 N N/A 30.05 1018 10 16 N/A

Powered by AerisWeather